Tillbaka till svenska Fidonet
English   Information   Debug  
FILM   0/18
FNEWS_PUBLISH   4881
FN_SYSOP   42085
FN_SYSOP_OLD1   71952
FTP_FIDO   0/2
FTSC_PUBLIC   0/13950
FUNNY   0/4886
GENEALOGY.EUR   0/71
GET_INFO   105
GOLDED   243/408
HAM   932/16617
HOLYSMOKE   0/6791
HOT_SITES   0/1
HTMLEDIT   0/71
HUB203   466
HUB_100   264
HUB_400   39
HUMOR   0/29
IC   0/2851
INTERNET   0/424
INTERUSER   0/3
IP_CONNECT   719
JAMNNTPD   0/233
JAMTLAND   0/47
KATTY_KORNER   0/41
LAN   0/16
LINUX-USER   0/19
LINUXHELP   0/1155
LINUX   0/22287
LINUX_BBS   0/957
mail   18.68
mail_fore_ok   249
MENSA   0/341
MODERATOR   0/102
MONTE   0/992
MOSCOW_OKLAHOMA   0/1245
MUFFIN   0/783
MUSIC   0/321
N203_STAT   938
N203_SYSCHAT   313
NET203   321
NET204   69
NET_DEV   0/10
NORD.ADMIN   0/101
NORD.CHAT   0/2572
NORD.FIDONET   189
NORD.HARDWARE   0/28
NORD.KULTUR   0/114
NORD.PROG   0/32
NORD.SOFTWARE   0/88
NORD.TEKNIK   0/58
NORD   0/453
OCCULT_CHAT   0/93
OS2BBS   0/787
OS2DOSBBS   0/580
OS2HW   0/42
OS2INET   13/37
OS2LAN   0/134
OS2PROG   0/36
OS2REXX   0/113
OS2USER-L   207
OS2   0/4829
OSDEBATE   4247/18996
PASCAL   0/490
PERL   0/457
PHP   0/45
POINTS   0/405
POLITICS   0/29554
POL_INC   4143/14731
PSION   103
R20_ADMIN   1133
R20_AMATORRADIO   0/2
R20_BEST_OF_FIDONET   16
R20_CHAT   0/896
R20_DEPP   0/3
R20_DEV   400
R20_ECHO2   1789
R20_ECHOPRES   0/35
R20_ESTAT   0/719
R20_FIDONETPROG...
...RAM.MYPOINT
  0/2
R20_FIDONETPROGRAM   0/22
R20_FIDONET   0/248
R20_FILEFIND   0/24
R20_FILEFOUND   0/22
R20_HIFI   0/3
R20_INFO2   3681
R20_INTERNET   0/12940
R20_INTRESSE   0/60
R20_INTR_KOM   0/99
R20_KANDIDAT.CHAT   42
R20_KANDIDAT   28
R20_KOM_DEV   112
R20_KONTROLL   0/13360
R20_KORSET   0/18
R20_LOKALTRAFIK   0/24
R20_MODERATOR   0/1852
R20_NC   76
R20_NET200   245
R20_NETWORK.OTH...
...ERNETS
  0/13
R20_OPERATIVSYS...
...TEM.LINUX
  0/44
R20_PROGRAMVAROR   0/1
R20_REC2NEC   534
R20_SFOSM   0/341
R20_SF   0/108
R20_SPRAK.ENGLISH   0/1
R20_SQUISH   107
R20_TEST   2
R20_WORST_OF_FIDONET   20
RAR   0/9
RA_MULTI   106
RA_UTIL   0/162
REGCON.EUR   0/2067
REGCON   0/13
SCIENCE   0/1206
SF   0/239
SHAREWARE_SUPPORT   0/5146
SHAREWRE   0/14
SIMPSONS   0/169
STATS_OLD1   0/2539.065
STATS_OLD2   0/2530
STATS_OLD3   0/2395.095
STATS_OLD4   0/1692.25
SURVIVOR   0/495
SYSOPS_CORNER   0/3
SYSOP   0/84
TAGLINES   0/112
TEAMOS2   0/4530
TECH   1742/2617
TEST.444   0/105
TRAPDOOR   0/19
TREK   0/755
TUB   0/290
UFO   0/40
UNIX   0/1316
USA_EURLINK   0/102
USR_MODEMS   0/1
VATICAN   0/2740
VIETNAM_VETS   0/14
VIRUS   0/378
VIRUS_INFO   0/201
VISUAL_BASIC   0/473
WHITEHOUSE   0/5187
WIN2000   0/101
WIN32   0/30
WIN95   0/4291
WIN95_OLD1   0/70272
WINDOWS   180/1517
WWB_SYSOP   0/419
WWB_TECH   464/810
ZCC-PUBLIC   0/1
ZEC   4

 
4DOS   0/134
ABORTION   0/7
ALASKA_CHAT   0/506
ALLFIX_FILE   0/1313
ALLFIX_FILE_OLD1   0/7997
ALT_DOS   0/152
AMATEUR_RADIO   0/1039
AMIGASALE   0/14
AMIGA   0/331
AMIGA_INT   0/1
AMIGA_PROG   0/20
AMIGA_SYSOP   0/26
ANIME   0/15
ARGUS   0/924
ASCII_ART   0/340
ASIAN_LINK   0/651
ASTRONOMY   0/417
AUDIO   0/92
AUTOMOBILE_RACING   0/105
BABYLON5   0/17862
BAG   135
BATPOWER   0/361
BBBS.ENGLISH   0/382
BBSLAW   0/109
BBS_ADS   0/5290
BBS_INTERNET   0/507
BIBLE   0/3563
BINKD   0/1119
BINKLEY   0/215
BLUEWAVE   0/2173
CABLE_MODEMS   0/25
CBM   0/46
CDRECORD   0/66
CDROM   0/20
CLASSIC_COMPUTER   0/378
COMICS   0/15
CONSPRCY   0/899
COOKING   41026
COOKING_OLD1   22598/24719
COOKING_OLD2   0/40862
COOKING_OLD3   27594/37489
COOKING_OLD4   0/35496
COOKING_OLD5   9370
C_ECHO   0/189
C_PLUSPLUS   0/31
DIRTY_DOZEN   0/201
DOORGAMES   0/2253
DOS_INTERNET   0/196
duplikat   6102
ECHOLIST   15650/18295
EC_SUPPORT   0/318
ELECTRONICS   0/359
ELEKTRONIK.GER   1534
ENET.LINGUISTIC   0/13
ENET.POLITICS   0/4
ENET.SOFT   0/11701
ENET.SYSOP   34256
ENET.TALKS   0/32
ENGLISH_TUTOR   0/2000
EVOLUTION   0/1335
FDECHO   0/217
FDN_ANNOUNCE   3856/7068
FIDONEWS   24978
FIDONEWS_OLD1   0/49742
FIDONEWS_OLD2   0/35949
FIDONEWS_OLD3   352/30874
FIDONEWS_OLD4   0/37224
FIDO_SYSOP   12920
FIDO_UTIL   0/180
FILEFIND   0/209
FILEGATE   0/212
Möte HAM, 16617 texter
 lista första sista föregående nästa
Text 787, 736 rader
Skriven 2006-01-20 01:31:36 av Amsat List (1:323/120.0)
Ärende: 
========
SB KEPS @ AMSAT  $ORB06019.O
Orbital Elements  06019.OSCAR

HR AMSAT ORBITAL ELEMENTS FOR OSCAR SATELLITES
FROM WA5QGD FORT WORTH,TX January 19, 2006
Send SUBSCRIBE KEPS/UNSUBSCRIBE KEPS to majordomo@amsat.org only
BID: ORB06019.O
TO ALL RADIO AMATEURS BT

Satellite: AO-07
Catalog number: 07530
Epoch time:      06018.70913290
Element set:    0544
Inclination:      101.5949 deg
RA of node:       065.2476 deg
Eccentricity:    0.0012149
Arg of perigee:   176.8644 deg
Mean anomaly:     183.2507 deg
Mean motion:   12.53571699 rev/day
Decay rate:       -2.8e-07 rev/day^2
Epoch rev:           42665
Checksum:              312

Satellite: AO-10
Catalog number: 14129
Epoch time:      06019.18657953
Element set:     250
Inclination:      027.4734 deg
RA of node:       353.3108 deg
Eccentricity:    0.6031840
Arg of perigee:   254.6652 deg
Mean anomaly:     034.7417 deg
Mean motion:   02.05865739 rev/day
Decay rate:       2.88e-06 rev/day^2
Epoch rev:           16998
Checksum:              319

Satellite: UO-11
Catalog number: 14781
Epoch time:      06018.84440240
Element set:    0976
Inclination:      098.2073 deg
RA of node:       025.8808 deg
Eccentricity:    0.0009921
Arg of perigee:   030.6524 deg
Mean anomaly:     329.5265 deg
Mean motion:   14.79370157 rev/day
Decay rate:        4.4e-07 rev/day^2
Epoch rev:           17368
Checksum:              307

Satellite: RS-10/11
Catalog number: 18129
Epoch time:      06018.69525035
Element set:     891
Inclination:      082.9259 deg
RA of node:       078.7490 deg
Eccentricity:    0.0012662
Arg of perigee:   142.7013 deg
Mean anomaly:     217.5032 deg
Mean motion:   13.72770085 rev/day
Decay rate:        4.0e-07 rev/day^2
Epoch rev:           93064
Checksum:              294

Satellite: RS-15
Catalog number: 23439
Epoch time:      06019.36871464
Element set:     919
Inclination:      064.8162 deg
RA of node:       117.9159 deg
Eccentricity:    0.0167409
Arg of perigee:   279.3082 deg
Mean anomaly:     078.8941 deg
Mean motion:   11.27551359 rev/day
Decay rate:       -3.9e-07 rev/day^2
Epoch rev:           45576
Checksum:              346

Satellite: FO-29
Catalog number: 24278
Epoch time:      06018.63615718
Element set:    0140
Inclination:      098.5185 deg
RA of node:       043.8106 deg
Eccentricity:    0.0350634
Arg of perigee:   337.8709 deg
Mean anomaly:     020.7605 deg
Mean motion:   13.52919181 rev/day
Decay rate:        3.2e-07 rev/day^2
Epoch rev:           46532
Checksum:              303

Satellite: SO-33
Catalog number: 25509
Epoch time:      06018.77744525
Element set:     561
Inclination:      031.4327 deg
RA of node:       253.9302 deg
Eccentricity:    0.0355682
Arg of perigee:   250.4099 deg
Mean anomaly:     105.7830 deg
Mean motion:   14.28073586 rev/day
Decay rate:       -3.5e-07 rev/day^2
Epoch rev:           37766
Checksum:              314

Satellite: AO-40
Catalog number: 26609
Epoch time:      06018.08810914
Element set:     665
Inclination:      007.3632 deg
RA of node:       259.5955 deg
Eccentricity:    0.7913854
Arg of perigee:   123.2458 deg
Mean anomaly:     336.4813 deg
Mean motion:   01.25583789 rev/day
Decay rate:       -9.0e-07 rev/day^2
Epoch rev:            2396
Checksum:              330

Satellite: VO-52
Catalog number: 28650
Epoch time:      06018.74742226
Element set:     233
Inclination:      097.8879 deg
RA of node:       094.3390 deg
Eccentricity:    0.0028163
Arg of perigee:   126.2196 deg
Mean anomaly:     234.1617 deg
Mean motion:   14.81033548 rev/day
Decay rate:      -1.30e-06 rev/day^2
Epoch rev:            3826
Checksum:              303

/EX
SB KEPS @ AMSAT  $ORB06019.D
Orbital Elements  06019.MICROS

HR AMSAT ORBITAL ELEMENTS FOR THE MICROSATS
FROM WA5QGD FORT WORTH,TX January 19, 2006
Send SUBSCRIBE KEPS/UNSUBSCRIBE KEPS to majordomo@amsat.org only
BID: ORB06019.D
TO ALL RADIO AMATEURS BT

Satellite: AO-16
Catalog number: 20439
Epoch time:      06018.80165648
Element set:    0654
Inclination:      098.1927 deg
RA of node:       037.1028 deg
Eccentricity:    0.0010151
Arg of perigee:   283.0658 deg
Mean anomaly:     076.9395 deg
Mean motion:   14.31707441 rev/day
Decay rate:       -8.0e-08 rev/day^2
Epoch rev:           83494
Checksum:              310

Satellite: WO-18
Catalog number: 20441
Epoch time:      06019.56416537
Element set:     854
Inclination:      098.1986 deg
RA of node:       042.3925 deg
Eccentricity:    0.0011062
Arg of perigee:   282.5831 deg
Mean anomaly:     077.4112 deg
Mean motion:   14.31779278 rev/day
Decay rate:        1.7e-07 rev/day^2
Epoch rev:           83511
Checksum:              303

Satellite: LO-19
Catalog number: 20442
Epoch time:      06018.57771208
Element set:    0591
Inclination:      098.2033 deg
RA of node:       046.2072 deg
Eccentricity:    0.0011221
Arg of perigee:   284.0329 deg
Mean anomaly:     075.9613 deg
Mean motion:   14.31952194 rev/day
Decay rate:        1.8e-07 rev/day^2
Epoch rev:           83504
Checksum:              280

Satellite: UO-22
Catalog number: 21575
Epoch time:      06018.88788666
Element set:     604
Inclination:      098.2760 deg
RA of node:       341.4546 deg
Eccentricity:    0.0007565
Arg of perigee:   153.0910 deg
Mean anomaly:     207.0664 deg
Mean motion:   14.39529959 rev/day
Decay rate:        1.2e-07 rev/day^2
Epoch rev:           76153
Checksum:              324

Satellite: KO-23
Catalog number: 22077
Epoch time:      06019.57567572
Element set:     689
Inclination:      066.0852 deg
RA of node:       053.2819 deg
Eccentricity:    0.0007911
Arg of perigee:   203.9442 deg
Mean anomaly:     156.1209 deg
Mean motion:   12.86434911 rev/day
Decay rate:       -3.7e-07 rev/day^2
Epoch rev:           63142
Checksum:              304

